This demonstration page uses our WeatherBlox Daily Observations layout. Learn more.

Left ArrowRight Arrow

Hourly Observations for March 13, 2018

Temp ( °F °C ) Dew Point ( °F °C ) Humidity (%) Winds ( mph kmh ) Pressure ( in mb ) Visibility ( mi km ) Precip ( " mm )
12:53 am 00:53 Cloudy 61 16.1 58 14.4 90 90 SSE 25 41 29.81 1010 10 16 0.00 0.03
1:14 am 01:14 Cloudy with Light Rain 60 15.6 58 14.4 93 93 S 22 35 29.83 1010 6 10 0.00 0.03
1:53 am 01:53 Cloudy 61 16.1 57 13.9 87 87 SSE 22 35 29.81 1009 10 16 0.00 0.03
2:53 am 02:53 Mostly Cloudy 60 15.6 57 13.9 90 90 SSE 16 26 29.80 1009 10 16 0.00 0.00
3:20 am 03:20 Partly Cloudy 59 15 56 13.3 90 90 SSE 12 19 29.80 1009 10 16 0.00 0.00
3:53 am 03:53 Mostly Cloudy 59 15 56 13.3 90 90 SSE 18 30 29.79 1009 10 16 0.00 0.00
4:42 am 04:42 Partly Cloudy 60 15.6 55 12.8 84 84 SSE 17 28 29.80 1009 10 16 0.00 0.00
4:53 am 04:53 Mostly Cloudy 60 15.6 55 12.8 84 84 S 18 30 29.79 1009 10 16 0.00 0.00
5:28 am 05:28 Mostly Cloudy 60 15.6 55 12.8 84 84 S 17 28 29.80 1009 10 16 0.00 0.00
5:53 am 05:53 Cloudy 60 15.6 55 12.8 84 84 S 22 35 29.77 1008 10 16 0.00 0.00
6:53 am 06:53 Mostly Cloudy 58 14.4 54 12.2 87 87 S 14 22 29.77 1008 10 16 0.04 1.02
7:40 am 07:40 Cloudy 58 14.4 54 12.2 87 87 S 16 26 29.77 1008 10 16 0.00 0.00
7:51 am 07:51 Cloudy with Light Rain 57 14 54 12 88 88 S 18 30 29.77 1008 10 16 0.00 0.03
7:53 am 07:53 Cloudy with Light Rain 58 14.4 54 12.2 87 87 S 18 30 29.77 1008 10 16 0.00 0.03
8:53 am 08:53 Cloudy 58 14.4 54 12.2 87 87 S 23 37 29.78 1008 10 16 0.00 0.03
9:27 am 09:27 Cloudy 58 14.4 55 12.8 90 90 S 17 28 29.77 1008 10 16 0.00 0.00
9:53 am 09:53 Cloudy with Light Rain 58 14.4 55 12.8 90 90 S 17 28 29.78 1008 9 14 0.01 0.25
10:53 am 10:53 Cloudy with Light Rain 57 13.9 55 12.8 93 93 S 16 26 29.79 1009 10 16 0.02 0.51
11:53 am 11:53 Cloudy with Light Rain 56 13.3 54 12.2 93 93 S 13 20 29.80 1009 10 16 0.04 1.02
12:27 pm 12:27 Cloudy with Light Rain 56 13.3 53 11.7 90 90 SSE 16 26 29.80 1009 7 11 0.02 0.51
12:44 pm 12:44 Cloudy with Light Rain 56 13.3 54 12.2 93 93 SE 10 17 29.80 1009 7 11 0.04 1.02
12:53 pm 12:53 Cloudy 56 13.3 54 12.2 93 93 SSE 12 19 29.80 1009 10 16 0.04 1.02
1:21 pm 13:21 Cloudy with Light Rain 56 13.3 53 11.7 90 90 SSE 10 17 29.80 1009 10 16 0.00 0.03
1:53 pm 13:53 Cloudy 56 13.3 52 11.1 87 87 SSE 10 17 29.80 1009 10 16 0.00 0.03
2:12 pm 14:12 Cloudy 57 13.9 51 10.6 81 81 S 14 22 29.80 1009 10 16 0.00 0.00
2:53 pm 14:53 Cloudy 57 13.9 48 8.9 72 72 S 23 37 29.79 1009 10 16 0.00 0.00
3:03 pm 15:03 Mostly Cloudy 57 13.9 48 8.9 72 72 S 18 30 29.80 1009 10 16 0.00 0.00
3:53 pm 15:53 Mostly Cloudy 57 13.9 48 8.9 72 72 S 17 28 29.79 1009 10 16 0.00 0.00
4:53 pm 16:53 Cloudy 57 13.9 46 7.8 67 67 SSW 13 20 29.79 1009 10 16 0.00 0.03
5:53 pm 17:53 Cloudy 51 10.6 46 7.8 83 83 WNW 7 11 29.80 1009 10 16 0.00 0.03
6:53 pm 18:53 Cloudy 52 11.1 47 8.3 83 83 ENE 7 11 29.80 1009 10 16 0.00 0.00
7:23 pm 19:23 Cloudy 51 10.6 46 7.8 83 83 NW 7 11 29.85 1011 10 16 0.00 0.00
7:34 pm 19:34 Cloudy 52 11.1 45 7.2 77 77 NW 8 13 29.85 1011 10 16 0.00 0.00
7:53 pm 19:53 Cloudy 51 10.6 41 5 69 69 NNW 8 13 29.83 1010 10 16 0.00 0.00
8:49 pm 20:49 Cloudy 48 9 43 6 82 82 NNW 6 9 29.85 1011 10 16 0.00 0.00
8:53 pm 20:53 Cloudy 49 9.4 43 6.1 80 80 NW 7 11 29.84 1011 10 16 0.00 0.00
9:53 pm 21:53 Cloudy 48 8.9 44 6.7 86 86 NNE 5 7 29.85 1011 10 16 0.00 0.00
10:53 pm 22:53 Cloudy 48 8.9 44 6.7 86 86 NE 6 9 29.87 1011 10 16 0.00 0.00
11:53 pm 23:53 Cloudy 48 8.9 44 6.7 86 86 N 5 7 29.88 1012 10 16 0.00 0.03

Powered by AerisWeather